Participated 2 times
Between 1962 and 1963
Joseph Velly, France
Tour de France 2026 starts from Edinburgh, Scotland in

Stats and Facts from
Tour de France.

2026   2025   2024   2023  2022  2021  2020  2019   2018  2017   2016   2015  2014  2013   2012   2011  2010   2009   2008   2007   2006   2005   2004   2003   2002   2001   2000   1999   1998   1997  1996   1995   1994   1993   1992  1991   1990   1989   1988   1987   1986   1985   1984   1983  1982  1981   1980   1979  1978  1977   1976  1975  1974  1973   1972   1971   1970  1969   1968   1967   1966   1965  1964  1963   1962   1961   1960   1959   1958   1957  1956   1955   1954   1953   1952  1951  1950  1949   1948  1947  1939   1938   1937   1936   1935   1934   1933  1932   1931   1930  1929   1928   1927   1926  1925  1924  1923   1922   1921   1920   1919  1914   1913   1912   1911   1910  1909   1908   1907   1906  1905  1904   1903 

Tourstats
Sitemap

After stage 21 - 2026:
 16451 starters.
  5513 different riders.
  689 teams.
  2419 stages.
  470 restdays.
  469752.50 km.
  5946 abandoned riders.

Click map for 2003 route.
Facts from Tour de France 2003
  |   Stages.  |   Stage winners.  |   Days in jerseys.  |   Teams.  |   All riders.  |   All riders by age.  |   All riders from.  |  

  |   Rookies.  |   Withdrawls.  |   Average speed.  |   GC.  |   Polka  |   Green  |   White  |   Summits. (In tour)  |   Miscellaneous.  |  

Stage 13 on July 19th. 2003
Pick a stage:  Pro  1  2  3  4  5  6  7  8  9  10  11  12  13  14  15  16  17  18  19  20  

After stage 13:    Lance Armstrong  
  ToulouseAx-3-Domaines | Dist: 197.50km. | Winner: Carlos Sastre

Podium
1  Col de Pailhères Juan Miguel Mercadoafter168.50 km.

1  Ax 3 Domaines Carlos Sastreafter197.50 km.


Average speed for all riders in stage:  34,932 km./hr.

1
 Carlos Sastre  CSC05h 16' 08"=37,484  km/h

2
 Jan Ullrich  Bianchi05h 17' 09"+  00:01:01 =37,364  km/h

3
 Haimar  Zubeldía  Euskaltel-Euskadi05h 17' 11"+  00:01:03 =37,360  km/h

4  Lance Armstrong  US Postal-Berry Floor05h 17' 16"+  00:01:08 =37,350  km/h

5  Alexandre Vinokourov  Telekom05h 17' 26"+  00:01:18 =37,331  km/h

6  Ivan Basso  Fassa Bortolo05h 17' 28"+  00:01:20 =37,327  km/h

7  Juan Miguel Mercado  ibanesto.com05h 17' 32"+  00:01:24 =37,319  km/h

8  Iban Mayo  Euskaltel-Euskadi05h 18' 07"+  00:01:59 =37,250  km/h

9  Christophe Moreau  Credit Agricole05h 18' 40"+  00:02:32 =37,186  km/h

10  Tyler Hamilton  CSC05h 18' 42"+  00:02:34 =37,182  km/h

11  Laurent Dufaux  Alessio05h 19' 14"+  00:03:06 =37,120  km/h

12  Francisco Mancebo  ibanesto.com05h 19' 17"+  00:03:09 =37,114  km/h

13  Richard Virenque  Quick Step-Davitamon05h 19' 54"+  00:03:46 =37,043  km/h

14  Georg Totschnig  Gerolsteiner05h 20' 03"+  00:03:55 =37,025  km/h

15  Didier Rous  Brioches La Boulangere05h 20' 03"+  00:03:55 =37,025  km/h

16  Manuel Beltran  US Postal-Berry Floor05h 20' 03"+  00:03:55 =37,025  km/h

17  Patrice Halgand  Jean Delatour05h 20' 19"+  00:04:11 =36,995  km/h

18  Denis Menchov  ibanesto.com05h 20' 22"+  00:04:14 =36,989  km/h

19  José-Luis Rubiera  US Postal-Berry Floor05h 20' 58"+  00:04:50 =36,920  km/h

20  Peter Luttenberger  CSC05h 22' 06"+  00:05:58 =36,790  km/h

21  Alexandre Botcharov  AG2R-Decathlon05h 22' 30"+  00:06:22 =36,744  km/h

22  Jörg Jaksche  O.N.C.E.-Eroski05h 22' 30"+  00:06:22 =36,744  km/h

23  Felix Garcia Casas  Bianchi05h 23' 30"+  00:07:22 =36,631  km/h

24  Roberto Heras  US Postal-Berry Floor05h 23' 30"+  00:07:22 =36,631  km/h

25  Iñigo Chaurreau  AG2R-Decathlon05h 24' 58"+  00:08:50 =36,465  km/h

26  Michael Boogerd  Rabobank05h 25' 13"+  00:09:05 =36,437  km/h

27  Roberto Laiseka  Euskaltel-Euskadi05h 25' 13"+  00:09:05 =36,437  km/h

28  Massimiliano Lelli  Cofidis Credit Par Telephone05h 25' 13"+  00:09:05 =36,437  km/h

29  Stéphane Goubert  Jean Delatour05h 25' 23"+  00:09:15 =36,419  km/h

30  David Millar  Cofidis Credit Par Telephone05h 25' 46"+  00:09:38 =36,376  km/h

31  Walter Bénéteau  Brioches La Boulangere05h 25' 46"+  00:09:38 =36,376  km/h

32  Carlos Da Cruz  fdjeux.com05h 27' 05"+  00:10:57 =36,229  km/h

33  David Plaza  Bianchi05h 27' 32"+  00:11:24 =36,180  km/h

34  José Azevedo  O.N.C.E.-Eroski05h 27' 55"+  00:11:47 =36,137  km/h

35  Jörg Ludewig  Saeco Macchine Da Caffe-Cannondale05h 27' 55"+  00:11:47 =36,137  km/h

36  David Latasa  Kelme-Costa Blanca05h 27' 55"+  00:11:47 =36,137  km/h

37  Rik Verbrugghe  Lotto-Domo05h 27' 55"+  00:11:47 =36,137  km/h

38  Laurent Brochard  AG2R-Decathlon05h 31' 16"+  00:15:08 =35,772  km/h

39  Christophe Brandt  Lotto-Domo05h 31' 16"+  00:15:08 =35,772  km/h

40  Grischa Niermann  Rabobank05h 31' 16"+  00:15:08 =35,772  km/h

41  Gerrit Glomser  Saeco Macchine Da Caffe-Cannondale05h 31' 16"+  00:15:08 =35,772  km/h

42  Médéric Clain  Cofidis Credit Par Telephone05h 31' 16"+  00:15:08 =35,772  km/h

43  Mikel Astarloza  AG2R-Decathlon05h 31' 36"+  00:15:28 =35,736  km/h

44  Andy Flickinger  AG2R-Decathlon05h 31' 36"+  00:15:28 =35,736  km/h

45  Michael Blaudzun  CSC05h 32' 45"+  00:16:37 =35,612  km/h

46  Matthias Kessler  Telekom05h 32' 45"+  00:16:37 =35,612  km/h

47  Remmert Wielinga  Rabobank05h 34' 06"+  00:17:58 =35,468  km/h

48  Andrea Noè  Alessio05h 35' 00"+  00:18:52 =35,373  km/h

49  Jérôme Pineau  Brioches La Boulangere05h 35' 00"+  00:18:52 =35,373  km/h

50  David Cañada  Quick Step-Davitamon05h 35' 00"+  00:18:52 =35,373  km/h

51  Yuriy Krivtsov  Jean Delatour05h 35' 00"+  00:18:52 =35,373  km/h

52  Daniele Nardello  Telekom05h 35' 00"+  00:18:52 =35,373  km/h

53  Davide Rebellin  Gerolsteiner05h 35' 00"+  00:18:52 =35,373  km/h

54  Vladimir Miholjević  Alessio05h 35' 00"+  00:18:52 =35,373  km/h

55  Mikel Pradera  O.N.C.E.-Eroski05h 35' 00"+  00:18:52 =35,373  km/h

56  Giuseppe Guerini  Telekom05h 35' 00"+  00:18:52 =35,373  km/h

57  Paolo Bettini  Quick Step-Davitamon05h 35' 00"+  00:18:52 =35,373  km/h

58  Álvaro Gonzalez De Galdeano  O.N.C.E.-Eroski05h 35' 00"+  00:18:52 =35,373  km/h

59  Evgueni Petrov  ibanesto.com05h 35' 00"+  00:18:52 =35,373  km/h

60  David Moncoutié  Cofidis Credit Par Telephone05h 35' 00"+  00:18:52 =35,373  km/h

61  Nicki Sørensen  CSC05h 35' 00"+  00:18:52 =35,373  km/h

62  Cédric Vasseur  Cofidis Credit Par Telephone05h 35' 00"+  00:18:52 =35,373  km/h

63  Viatcheslav Ekimov  US Postal-Berry Floor05h 35' 00"+  00:18:52 =35,373  km/h

64  George Hincapie  US Postal-Berry Floor05h 35' 00"+  00:18:52 =35,373  km/h

65  Udo Bölts  Gerolsteiner05h 35' 43"+  00:19:35 =35,298  km/h

66  Luca Paolini  Quick Step-Davitamon05h 36' 13"+  00:20:05 =35,245  km/h

67  Thor Hushovd  Credit Agricole05h 37' 29"+  00:21:21 =35,113  km/h

68  Óscar Freire  Rabobank05h 38' 12"+  00:22:04 =35,038  km/h

69  Alessandro Bertolini  Alessio05h 40' 27"+  00:24:19 =34,807  km/h

70  Mario Aerts  Telekom05h 41' 37"+  00:25:29 =34,688  km/h

71  Marzio Bruseghin  Fassa Bortolo05h 41' 37"+  00:25:29 =34,688  km/h

72  Mikel Artetxe  Euskaltel-Euskadi05h 41' 37"+  00:25:29 =34,688  km/h

73  Dario David Cioni  Fassa Bortolo05h 41' 37"+  00:25:29 =34,688  km/h

74  Fabio Sacchi  Saeco Macchine Da Caffe-Cannondale05h 41' 37"+  00:25:29 =34,688  km/h

75  Floyd Landis  US Postal-Berry Floor05h 41' 37"+  00:25:29 =34,688  km/h

76  Pavel Padrnos  US Postal-Berry Floor05h 41' 37"+  00:25:29 =34,688  km/h

77  Iván Parra  Kelme-Costa Blanca05h 41' 37"+  00:25:29 =34,688  km/h

78  Guido Trentin  Cofidis Credit Par Telephone05h 41' 37"+  00:25:29 =34,688  km/h

79  Nicolas Portal  AG2R-Decathlon05h 41' 37"+  00:25:29 =34,688  km/h

80  Nicolas Fritsch  fdjeux.com05h 41' 37"+  00:25:29 =34,688  km/h

81  Pablo Lastras  ibanesto.com05h 41' 37"+  00:25:29 =34,688  km/h

82  Xabier Zandio  ibanesto.com05h 41' 37"+  00:25:29 =34,688  km/h

83  Axel Merckx  Lotto-Domo05h 41' 37"+  00:25:29 =34,688  km/h

84  Javier Rodriguez  Kelme-Costa Blanca05h 41' 37"+  00:25:29 =34,688  km/h

85  Alberto Lopez  Euskaltel-Euskadi05h 41' 37"+  00:25:29 =34,688  km/h

86  Iñigo Landaluze  Euskaltel-Euskadi05h 41' 37"+  00:25:29 =34,688  km/h

87  Franck Renier  Brioches La Boulangere05h 41' 37"+  00:25:29 =34,688  km/h

88  Laurent Lefèvre  Jean Delatour05h 41' 37"+  00:25:29 =34,688  km/h

89  Jean-Patrick Nazon  Jean Delatour05h 41' 37"+  00:25:29 =34,688  km/h

90  Victor Hugo Peña  US Postal-Berry Floor05h 41' 37"+  00:25:29 =34,688  km/h

91  René Andrle  O.N.C.E.-Eroski05h 41' 37"+  00:25:29 =34,688  km/h

92  Gilberto Simoni  Saeco Macchine Da Caffe-Cannondale05h 41' 37"+  00:25:29 =34,688  km/h

93  Romāns Vainšteins  Vini Caldirola-Saunier Duval05h 41' 37"+  00:25:29 =34,688  km/h

94  Markus Zberg  Gerolsteiner05h 42' 13"+  00:26:05 =34,627  km/h

95  Ludovic Turpin  AG2R-Decathlon05h 42' 27"+  00:26:19 =34,604  km/h

96  Sébastien Hinault  Credit Agricole05h 46' 02"+  00:29:54 =34,245  km/h

97  Benoît Poilvet  Credit Agricole05h 46' 02"+  00:29:54 =34,245  km/h

98  José Garcia Acosta  ibanesto.com05h 46' 55"+  00:30:47 =34,158  km/h

99  Fred Rodriguez  Vini Caldirola-Saunier Duval05h 47' 39"+  00:31:31 =34,086  km/h

100  Frédéric Finot  Jean Delatour05h 49' 08"+  00:33:00 =33,941  km/h

101  Fabrizio Guidi  Bianchi05h 49' 08"+  00:33:00 =33,941  km/h

102  Aitor Garmendia  Bianchi05h 49' 08"+  00:33:00 =33,941  km/h

103  Angel Luis Casero  Bianchi05h 49' 08"+  00:33:00 =33,941  km/h

104  Vladimir Karpets  ibanesto.com05h 49' 08"+  00:33:00 =33,941  km/h

105  Erik Zabel  Telekom05h 49' 22"+  00:33:14 =33,919  km/h

106  Rolf Aldag  Telekom05h 49' 22"+  00:33:14 =33,919  km/h

107  Jakob Piil  CSC05h 49' 22"+  00:33:14 =33,919  km/h

108  Stuart O'Grady  Credit Agricole05h 49' 22"+  00:33:14 =33,919  km/h

109  Juan Antonio Flecha  ibanesto.com05h 49' 22"+  00:33:14 =33,919  km/h

110  Andrei Hauptman  Vini Caldirola-Saunier Duval05h 49' 22"+  00:33:14 =33,919  km/h

111  Servais Knaven  Quick Step-Davitamon05h 49' 22"+  00:33:14 =33,919  km/h

112  Nicolas Jalabert  CSC05h 49' 22"+  00:33:14 =33,919  km/h

113  José Enrique Gutierrez  Kelme-Costa Blanca05h 49' 22"+  00:33:14 =33,919  km/h

114  Kurt Van De Wouwer  Quick Step-Davitamon05h 49' 22"+  00:33:14 =33,919  km/h

115  Salvatore Commesso  Saeco Macchine Da Caffe-Cannondale05h 49' 22"+  00:33:14 =33,919  km/h

116  Thomas Liese  Bianchi05h 49' 22"+  00:33:14 =33,919  km/h

117  Daniel Becke  Bianchi05h 49' 22"+  00:33:14 =33,919  km/h

118  David Munoz  Kelme-Costa Blanca05h 49' 22"+  00:33:14 =33,919  km/h

119  Koos Moerenhout  Lotto-Domo05h 49' 22"+  00:33:14 =33,919  km/h

120  Anthony Geslin  Brioches La Boulangere05h 49' 22"+  00:33:14 =33,919  km/h

121  Paolo Fornaciari  Saeco Macchine Da Caffe-Cannondale05h 49' 22"+  00:33:14 =33,919  km/h

122  Philippe Gaumont  Cofidis Credit Par Telephone05h 49' 22"+  00:33:14 =33,919  km/h

123  Marcos Serrano  O.N.C.E.-Eroski05h 49' 22"+  00:33:14 =33,919  km/h

124  Isidro Nozal  O.N.C.E.-Eroski05h 49' 22"+  00:33:14 =33,919  km/h

125  Andrea Peron  CSC05h 49' 22"+  00:33:14 =33,919  km/h

126  Iñigo Cuesta  Cofidis Credit Par Telephone05h 49' 22"+  00:33:14 =33,919  km/h

127  László Bodrogi  Quick Step-Davitamon05h 49' 22"+  00:33:14 =33,919  km/h

128  Michael Rogers  Quick Step-Davitamon05h 49' 22"+  00:33:14 =33,919  km/h

129  Bekim Leif Christensen  CSC05h 49' 22"+  00:33:14 =33,919  km/h

130  Julian Usano  Kelme-Costa Blanca05h 49' 22"+  00:33:14 =33,919  km/h

131  Christophe Edaleine  Jean Delatour05h 49' 22"+  00:33:14 =33,919  km/h

132  Marc Wauters  Rabobank05h 49' 22"+  00:33:14 =33,919  km/h

133  Sylvain Chavanel  Brioches La Boulangere05h 49' 22"+  00:33:14 =33,919  km/h

134  Christophe Oriol  AG2R-Decathlon05h 49' 22"+  00:33:14 =33,919  km/h

135  Santiago Botero  Telekom05h 49' 22"+  00:33:14 =33,919  km/h

136  Uwe Peschel  Gerolsteiner05h 49' 22"+  00:33:14 =33,919  km/h

137  Bram de Groot  Rabobank05h 49' 22"+  00:33:14 =33,919  km/h

138  Maryan Hary  Brioches La Boulangere05h 49' 22"+  00:33:14 =33,919  km/h

139  Serge Baguet  Lotto-Domo05h 49' 22"+  00:33:14 =33,919  km/h

140  Robbie McEwen  Lotto-Domo05h 49' 22"+  00:33:14 =33,919  km/h

141  Nicolas Vogondy  fdjeux.com05h 49' 22"+  00:33:14 =33,919  km/h

142  Leon van Bon  Lotto-Domo05h 49' 22"+  00:33:14 =33,919  km/h

143  Leonardo Bertagnolli  Saeco Macchine Da Caffe-Cannondale05h 49' 22"+  00:33:14 =33,919  km/h

144  Steve Zampieri  Vini Caldirola-Saunier Duval05h 49' 22"+  00:33:14 =33,919  km/h

145  Hans De Clercq  Lotto-Domo05h 49' 22"+  00:33:14 =33,919  km/h

146  Dario Andriotto  Vini Caldirola-Saunier Duval05h 49' 22"+  00:33:14 =33,919  km/h

147  Samuel Dumoulin  Jean Delatour05h 49' 22"+  00:33:14 =33,919  km/h

148  Nick Gates  Lotto-Domo05h 49' 22"+  00:33:14 =33,919  km/h

149  Christophe Mengin  fdjeux.com05h 49' 22"+  00:33:14 =33,919  km/h

150  Marco Milesi  Vini Caldirola-Saunier Duval05h 49' 22"+  00:33:14 =33,919  km/h

151  Davide Bramati  Quick Step-Davitamon05h 49' 22"+  00:33:14 =33,919  km/h

152  Damien Nazon  Brioches La Boulangere05h 49' 22"+  00:33:14 =33,919  km/h

153  Thomas  Voeckler  Brioches La Boulangere05h 49' 22"+  00:33:14 =33,919  km/h

154  Robert Hunter  Rabobank05h 50' 41"+  00:34:33 =33,791  km/h

155  Bradley McGee  fdjeux.com05h 50' 41"+  00:34:33 =33,791  km/h

156  René Haselbacher  Gerolsteiner05h 50' 41"+  00:34:33 =33,791  km/h

157  Baden Cooke  fdjeux.com05h 50' 41"+  00:34:33 =33,791  km/h

158  Paolo Bossoni  Vini Caldirola-Saunier Duval05h 50' 41"+  00:34:33 =33,791  km/h

159  Sandy Casar  fdjeux.com05h 54' 08"+  00:38:00 =33,462  km/h

160  Pierrick  Fédrigo  Credit Agricole06h 03' 23"+  00:47:15 =32,610  km/h

161  Franco Pellizotti  Alessio06h 06' 58"+  00:50:50 =32,292  km/h

162  Raffaele Ferrara  Alessio06h 06' 58"+  00:50:50 =32,292  km/h


Withdrawls: 3
 RiderTeamReason
204   Pietro Caucchioli AlessioDid not start
54   Danilo Di Luca Saeco Macchine Da Caffe-CannondaleDid not finish
197   Torsten Schmidt GerolsteinerDid not finish
Todays birthdays.

1858 • Aimé Monin
1894 • Camille Nicou
1902 • Louis Millo
1902 • Aleardo Simoni
1903 • Jean-Gabriel Zenon
1926 • Isidoor De Ryck
1931 • Miguel Pacheco
1946 • Stéphane Abrahamian
1956 • Siegfried Hekimi
1957 • Peter Winnen
1958 • Marcel Russenberger
1958 • Patrick Versluys
1981 • Daniel Moreno
1984 • Chris Anker Sørensen
1989 • Joey Rosskopf

 

Optimized for Chrome - Edge
and Opera browsers.